QIANFAN-92 (66034 NORAD) Tracking and Keplerian Element Data

This shows tracking and keplerian element data for the satellite.

Feedback or suggestion? Click here.




ElementValue
Catalog66034
NameQIANFAN-92
Epoch Orbit900
Epoch Day354.2153623
Epoch Year2025
RAAN61.3632
Inclination88.9946
Eccentricity0.0016912
Argument of Perigee24.7991
Mean Anonmoly335.398
Mean Motion13.70876819
Decay Rate4.7E-07
L11 66034U 25233B 25354.21536230 .00000047 00000+0 37965-4 0 9999
L22 66034 88.9946 61.3632 0016912 24.7991 335.3980 13.70876819 9007



Live tracking and technical data element details for QIANFAN-92 (NORAD 66034). QIANFAN-92 can be tracked NOW for your location showing map with azimuth and elevation plus other details from your city location.







IsCatalogInMostPopularTable: catalog: 66034, numindb: 10
Update: records affected: 1



GetName: 66034 QIANFAN-92

Hit Count: updated at: Mon, 20 Apr 2026 11:22:29 GMT